Wind_Speed
6 7 6 6 6 6 7 7 8 8 8 8 8 9 9 9 10 10 11 11 11 12 13 13 14 14 14 14 15 15 15 16 16 16 17 18 19 19 20 20 20 20 20
8 8 8 8 8 8 8 9 9 10 10 10 11 11 11 12 12 13 13 13 13 13 14 14 15 16 16 16 16 17 17 18 18 18 19 20 21 21 22 21 21 22 22
10 10 10 10 9 10 10 11 11 12 12 12 13 13 14 14 14 15 15 15 15 15 16 16 17 17 17 18 18 19 19 20 20 20 21 21 22 23 23 23 23 23 23
11 11 11 11 11 11 11 12 13 13 14 14 14 15 15 15 16 16 16 17 17 17 17 18 19 19 19 20 20 21 21 22 22 23 23 24 24 24 24 25 25 25 25
13 12 12 12 13 13 13 13 14 14 15 16 16 16 16 17 18 18 18 19 19 19 19 20 21 21 21 22 22 23 24 24 24 25 25 26 26 26 27 27 26 26 26
14 14 13 14 14 14 15 15 16 16 17 17 18 18 18 19 20 20 20 21 21 21 22 22 23 23 23 24 25 25 26 26 27 28 28 28 28 28 28 28 28 28 27
17 17 16 16 16 16 17 17 18 19 19 19 20 20 21 21 22 23 23 24 23 23 24 24 25 26 26 27 27 28 28 29 29 29 29 29 29 29 30 29 29 29 29
19 19 19 18 18 19 19 19 20 21 22 22 22 22 23 23 24 24 25 26 26 26 26 27 28 29 30 30 31 30 30 31 31 31 31 31 31 31 31 30 30 30 30
21 21 21 21 22 22 22 22 23 23 24 24 24 24 24 25 26 27 27 28 28 28 29 30 31 31 32 33 33 33 33 33 33 33 32 32 32 33 33 32 32 31 31
23 23 23 24 24 24 24 25 25 26 25 26 26 26 26 26 27 28 29 30 30 30 30 30 31 32 33 34 34 35 35 35 35 35 34 34 34 34 34 34 34 33 32
24 25 25 25 26 26 26 26 26 27 27 28 28 27 28 27 28 29 30 30 30 31 32 32 32 33 33 34 34 35 35 35 35 35 34 35 35 36 35 35 35 35 34
26 26 26 26 27 27 27 27 27 28 29 29 29 29 29 29 29 30 30 31 31 32 32 33 33 34 34 34 34 34 34 35 35 35 35 35 36 37 36 37 37 37 37
27 27 27 28 28 28 29 29 29 30 31 31 31 30 30 31 31 31 32 32 33 33 34 34 34 35 35 36 35 35 35 36 36 37 37 37 37 38 38 39 39 39 39
28 28 29 29 30 30 31 32 32 32 32 33 32 32 33 33 33 33 33 34 35 35 35 35 36 36 36 37 37 37 37 37 37 38 38 39 39 40 40 40 41 41 41
29 30 30 31 31 32 33 34 34 34 34 34 34 34 35 35 35 36 36 37 37 36 36 35 35 36 36 37 37 38 39 38 38 39 40 41 42 42 42 42 42 42 41
30 31 31 32 33 33 34 34 34 34 34 34 35 36 36 37 38 38 38 38 37 36 37 37 37 38 38 38 38 39 39 39 40 41 42 43 43 43 43 43 43 43 42
33 33 33 33 33 34 34 34 34 35 35 36 37 38 38 38 39 39 38 38 38 38 39 39 39 39 40 40 39 39 40 41 42 43 43 43 44 44 44 43 43 43 42
35 35 34 34 34 34 35 35 35 35 36 37 38 39 40 40 40 40 40 40 40 40 40 40 41 41 41 41 41 41 42 43 43 44 43 43 43 44 43 43 42 42 41
36 35 35 35 36 36 36 36 37 37 37 38 39 40 40 41 41 41 41 41 41 41 41 41 41 41 41 41 42 42 42 43 43 43 43 43 43 43 43 42 41 40 40
36 35 35 35 36 36 37 38 38 38 38 39 40 41 41 41 41 41 42 42 42 42 42 41 40 40 41 42 42 43 42 42 42 41 42 42 42 42 42 41 40 39 39
37 37 36 37 37 37 38 38 38 39 40 41 41 41 41 41 41 41 42 42 41 41 41 40 40 41 42 43 43 43 43 42 42 42 41 41 41 40 40 39 38 38 37
37 38 38 37 37 38 38 38 38 39 40 41 41 41 41 41 42 42 42 42 41 41 40 40 41 42 42 43 43 42 42 42 41 40 40 40 39 39 38 37 37 37 37
36 37 37 37 38 38 38 39 40 40 41 41 41 42 42 42 42 42 42 41 41 41 40 40 41 41 42 42 42 42 41 40 40 39 39 39 38 37 37 37 37 37 37
35 36 36 37 37 38 38 39 39 40 40 40 41 41 41 42 42 42 42 41 41 41 41 40 40 40 41 41 42 42 41 40 39 39 38 38 38 38 37 37 37 36 36
33 34 35 36 37 37 38 38 38 38 38 38 39 39 39 39 39 40 40 40 40 40 40 40 39 39 40 41 41 40 40 40 39 38 37 37 37 37 36 36 36 36 36
32 33 34 34 35 36 36 37 37 37 37 38 38 39 38 38 38 39 39 39 39 39 39 39 39 39 39 39 39 39 40 39 38 37 36 36 36 36 35 35 35 34 34
Wind_Direction
302 299 296 298 299 299 301 302 303 305 308 310 311 308 306 304 306 309 311 312 312 313 315 315 313 313 312 312 310 310 311 313 315 316 316 317 318 318 318 317 317 316 314
295 293 288 286 291 293 295 296 297 300 302 305 305 305 302 300 300 302 304 304 306 307 308 311 312 311 309 309 309 308 308 309 310 311 312 313 313 314 314 315 313 313 312
291 291 287 284 285 287 289 291 293 294 295 298 299 300 300 299 298 298 298 301 301 301 303 305 306 307 307 306 305 304 304 306 308 309 309 309 310 311 311 311 310 309 309
285 286 285 284 284 283 285 290 292 291 291 293 294 296 297 297 298 297 295 297 299 300 300 301 303 303 304 303 303 302 302 304 306 307 308 308 308 308 308 307 308 307 306
282 285 284 281 281 284 287 290 291 293 292 292 292 293 295 297 297 295 295 295 296 297 297 298 299 300 301 301 301 300 300 301 303 305 306 306 306 306 306 305 305 305 304
281 286 285 284 283 284 286 289 290 291 292 293 292 291 291 292 293 293 294 294 294 295 295 296 297 298 298 300 300 299 298 299 301 303 304 305 305 304 304 303 303 303 303
278 281 284 285 284 286 287 288 289 290 291 292 290 289 289 290 290 291 292 293 293 293 294 295 295 296 297 297 297 298 298 298 299 301 302 302 303 303 302 301 301 302 303
277 279 280 281 283 284 286 287 289 290 290 291 290 289 289 289 289 290 291 292 293 293 294 294 295 296 297 296 296 296 297 296 297 298 300 300 301 302 302 301 300 300 300
276 278 279 281 282 283 284 286 288 290 290 290 290 288 288 288 288 289 289 289 291 292 293 293 293 293 294 294 295 295 295 296 296 297 299 301 301 300 300 299 300 299 298
277 278 279 281 282 283 283 285 287 289 290 289 288 288 288 289 290 290 290 290 291 293 294 295 295 294 293 294 295 295 294 295 295 296 297 298 300 300 299 300 299 298 297
278 279 279 280 281 283 284 286 287 289 291 291 290 288 287 289 292 293 292 294 295 295 295 296 297 296 294 294 294 295 295 294 294 295 296 296 297 298 299 300 299 298 297
279 279 279 279 280 282 284 286 287 288 289 290 291 290 288 289 291 293 295 296 297 297 297 297 297 296 296 296 296 297 297 295 294 294 294 295 296 297 297 297 298 298 298
279 280 280 280 280 282 284 285 286 286 287 288 288 290 290 290 290 292 294 295 296 296 296 296 296 296 295 296 295 296 296 296 295 295 294 294 295 295 295 296 296 296 296
280 280 280 279 280 282 284 285 285 286 286 287 288 289 289 290 290 291 292 293 294 295 296 295 295 296 296 296 295 294 295 295 295 294 294 294 294 295 295 295 295 294 294
278 279 279 278 279 282 284 285 285 286 285 286 287 289 289 289 289 290 291 292 293 295 295 294 294 295 296 296 296 296 296 296 294 294 294 293 293 294 295 295 294 294 294
280 280 279 279 280 280 282 284 285 285 286 286 287 288 289 288 287 288 289 290 291 292 293 293 294 294 294 295 296 295 295 295 296 295 294 293 293 294 294 294 294 294 294
279 280 280 280 282 282 282 283 284 284 285 286 286 288 289 289 289 290 290 290 291 291 292 293 293 294 294 295 294 294 295 295 296 296 295 294 294 294 295 294 293 293 293
278 279 279 280 281 282 283 284 284 284 285 285 287 288 290 291 291 291 291 291 291 291 291 292 293 294 295 294 293 294 295 296 297 296 295 295 295 295 295 294 293 292 291
278 279 279 280 280 281 283 284 286 285 286 287 288 289 289 290 291 291 292 292 291 290 291 292 292 293 293 293 294 294 295 295 296 296 296 295 295 295 295 295 293 292 291
276 279 280 280 281 282 284 285 285 286 286 288 289 290 290 291 291 292 293 293 293 291 291 291 291 292 293 293 294 295 295 296 295 295 296 295 294 294 295 295 293 292 291
278 279 280 281 283 284 284 285 285 286 287 289 291 291 292 292 293 294 294 294 294 293 292 292 292 292 292 293 294 294 295 296 296 295 296 295 294 294 294 294 294 293 292
278 279 281 283 284 284 284 284 286 288 290 291 292 292 292 293 293 293 293 294 294 294 293 292 292 292 293 294 294 294 295 296 296 296 296 296 296 295 295 294 292 292 291
278 280 279 282 284 285 285 286 287 289 290 291 292 292 292 292 293 293 293 293 293 293 293 292 293 293 293 294 294 294 294 295 295 295 296 295 294 293 292 292 291 291 290
279 280 281 282 284 285 285 286 287 289 290 292 293 293 292 293 293 293 293 293 293 293 292 292 293 293 294 294 295 294 294 295 295 295 295 293 292 291 291 292 292 291 290
279 280 282 283 284 285 286 287 288 289 290 292 293 294 295 295 294 293 293 293 293 292 292 291 292 293 294 295 296 296 295 294 294 294 294 293 291 291 290 291 292 292 291
278 281 282 283 284 286 287 288 288 289 290 291 293 294 295 295 295 295 294 293 292 291 291 293 294 295 295 295 297 297 296 295 294 294 294 294 294 293 292 292 292 291 291
Height
5901 5901 5900 5900 5900 5899 5898 5898 5897 5896 5895 5894 5894 5893 5891 5890 5889 5888 5887 5886 5884 5883 5881 5879 5878 5876 5874 5872 5870 5868 5866 5864 5863 5861 5858 5856 5853 5851 5848 5846 5843 5840 5838
5900 5899 5899 5898 5898 5897 5897 5896 5895 5894 5894 5893 5892 5891 5889 5888 5887 5886 5884 5883 5882 5880 5879 5877 5875 5873 5871 5869 5867 5865 5863 5861 5859 5857 5854 5852 5849 5847 5844 5841 5839 5836 5833
5897 5897 5896 5895 5895 5895 5894 5894 5893 5892 5891 5890 5889 5888 5887 5885 5884 5883 5881 5880 5878 5877 5875 5873 5871 5869 5867 5865 5863 5861 5859 5857 5855 5852 5850 5847 5845 5842 5839 5837 5834 5831 5828
5895 5894 5894 5893 5892 5892 5891 5891 5890 5889 5888 5887 5886 5885 5883 5882 5881 5879 5878 5876 5875 5873 5871 5869 5867 5865 5863 5861 5859 5856 5854 5852 5850 5847 5845 5842 5840 5837 5834 5831 5828 5826 5823
5892 5891 5891 5890 5889 5889 5888 5888 5887 5886 5885 5884 5883 5881 5880 5878 5877 5875 5874 5872 5870 5869 5867 5865 5863 5861 5859 5856 5854 5852 5849 5847 5844 5842 5839 5837 5834 5831 5828 5825 5822 5820 5817
5888 5888 5887 5886 5886 5885 5885 5884 5883 5882 5881 5880 5879 5877 5876 5874 5873 5871 5869 5867 5865 5863 5862 5860 5857 5855 5853 5851 5848 5846 5844 5841 5838 5835 5833 5830 5828 5825 5822 5819 5816 5813 5810
5884 5883 5883 5882 5882 5881 5881 5880 5879 5878 5877 5875 5874 5872 5871 5869 5867 5866 5864 5862 5860 5858 5856 5854 5852 5849 5847 5844 5842 5839 5837 5834 5832 5829 5826 5823 5820 5818 5815 5812 5808 5805 5803
5879 5878 5878 5878 5877 5876 5876 5875 5874 5873 5871 5870 5869 5867 5865 5864 5862 5860 5858 5856 5854 5852 5850 5847 5845 5842 5840 5837 5835 5832 5829 5826 5824 5821 5818 5816 5813 5810 5807 5804 5801 5798 5795
5873 5873 5872 5872 5872 5871 5870 5869 5868 5867 5866 5864 5862 5861 5859 5857 5856 5854 5852 5849 5847 5845 5843 5840 5838 5835 5832 5829 5827 5824 5821 5818 5815 5813 5810 5807 5804 5801 5798 5795 5792 5789 5787
5867 5867 5867 5866 5865 5865 5864 5863 5862 5860 5859 5858 5856 5854 5852 5851 5849 5846 5844 5842 5840 5838 5835 5832 5829 5826 5824 5821 5818 5815 5813 5810 5807 5804 5801 5799 5796 5793 5789 5786 5783 5780 5778
5861 5860 5859 5859 5858 5857 5857 5856 5855 5853 5852 5850 5849 5847 5845 5843 5841 5838 5836 5834 5832 5830 5827 5824 5822 5818 5815 5812 5809 5806 5803 5801 5798 5795 5792 5790 5787 5784 5780 5777 5774 5771 5768
5854 5853 5852 5852 5851 5850 5849 5848 5847 5846 5844 5843 5841 5839 5837 5835 5833 5831 5828 5826 5823 5821 5818 5816 5813 5810 5806 5803 5800 5798 5794 5791 5788 5785 5783 5780 5778 5775 5771 5768 5764 5761 5758
5846 5846 5845 5844 5844 5843 5841 5840 5839 5838 5836 5834 5833 5831 5829 5827 5824 5822 5820 5817 5814 5811 5809 5807 5804 5800 5797 5794 5791 5788 5784 5781 5778 5775 5773 5770 5767 5764 5761 5758 5754 5751 5748
5839 5838 5837 5837 5836 5834 5833 5832 5830 5829 5827 5825 5823 5822 5820 5818 5815 5813 5810 5808 5805 5802 5799 5797 5794 5791 5787 5784 5781 5778 5774 5771 5768 5765 5762 5759 5756 5753 5750 5746 5743 5740 5737
5831 5830 5829 5828 5827 5826 5824 5823 5821 5820 5818 5816 5815 5812 5810 5808 5806 5803 5800 5798 5795 5792 5789 5786 5784 5781 5777 5774 5771 5767 5764 5760 5757 5754 5750 5747 5744 5741 5738 5734 5731 5727 5725
5822 5821 5820 5819 5818 5816 5815 5813 5811 5810 5808 5806 5804 5802 5800 5798 5795 5792 5790 5787 5784 5781 5778 5776 5773 5770 5767 5763 5760 5756 5753 5749 5746 5742 5738 5735 5732 5728 5725 5722 5718 5715 5712
5812 5812 5811 5810 5808 5807 5805 5804 5802 5800 5798 5796 5794 5792 5790 5787 5784 5781 5778 5775 5773 5770 5767 5764 5762 5759 5755 5752 5749 5745 5742 5738 5734 5730 5726 5722 5718 5715 5712 5708 5705 5703 5700
5802 5801 5801 5800 5798 5797 5795 5793 5791 5789 5788 5785 5783 5781 5778 5775 5772 5770 5767 5763 5761 5758 5755 5753 5750 5747 5744 5741 5737 5733 5730 5726 5721 5717 5713 5709 5705 5701 5697 5695 5692 5690 5687
5791 5791 5790 5789 5788 5786 5785 5783 5781 5778 5776 5774 5772 5769 5766 5763 5760 5757 5754 5751 5748 5746 5743 5740 5738 5735 5732 5728 5725 5721 5717 5713 5709 5704 5700 5697 5692 5688 5685 5682 5679 5677 5675
5780 5780 5779 5778 5777 5776 5774 5772 5770 5768 5765 5763 5760 5758 5755 5751 5748 5745 5742 5739 5736 5733 5731 5728 5725 5722 5719 5716 5712 5709 5705 5700 5696 5692 5688 5684 5680 5676 5673 5670 5667 5665 5663
5769 5769 5768 5767 5766 5764 5762 5760 5758 5756 5754 5751 5748 5746 5742 5739 5736 5733 5730 5727 5724 5721 5718 5715 5712 5710 5707 5703 5700 5696 5692 5688 5684 5680 5676 5672 5668 5665 5661 5658 5655 5653 5651
5758 5758 5757 5756 5755 5753 5751 5749 5747 5744 5742 5739 5736 5733 5730 5727 5724 5721 5718 5715 5712 5709 5706 5703 5700 5697 5694 5691 5687 5683 5680 5676 5672 5668 5664 5660 5657 5653 5650 5647 5645 5643 5640
5747 5746 5746 5744 5743 5742 5740 5737 5735 5733 5730 5727 5724 5721 5717 5714 5711 5708 5705 5702 5699 5697 5694 5690 5688 5685 5682 5678 5674 5671 5667 5664 5660 5656 5653 5649 5646 5642 5639 5637 5634 5632 5630
5736 5735 5734 5733 5732 5730 5728 5726 5723 5721 5718 5715 5712 5708 5705 5702 5699 5696 5693 5690 5687 5684 5681 5678 5675 5672 5669 5666 5662 5659 5655 5652 5648 5644 5641 5638 5635 5632 5629 5626 5624 5621 5618
5725 5724 5723 5722 5721 5719 5716 5714 5712 5709 5706 5703 5700 5696 5693 5690 5687 5684 5681 5678 5675 5672 5669 5666 5663 5660 5657 5653 5650 5646 5643 5640 5636 5633 5629 5626 5624 5621 5618 5616 5613 5610 5607
5716 5715 5714 5712 5710 5708 5705 5703 5700 5698 5695 5692 5689 5685 5682 5679 5676 5672 5669 5666 5663 5661 5658 5655 5652 5649 5645 5642 5638 5635 5632 5628 5625 5621 5618 5615 5613 5610 5607 5605 5602 5599 5596